Location: Red Rock Farm
(35.2100°N, 97.2200°W)
Time: 15:07:25
(UTC-05:00)

Daily predictions for brighter satellites

Satellite Brightness Start Highest point End
(mag) Time Altitude Azimuth Time Altitude Azimuth Time Altitude Azimuth
COSMOS 2406 4.2 20:59:05 10° N 21:04:10 31° ENE 21:09:12 10° ESE
ATLAS 5 CENTAUR R/B 3.3 20:58:58 10° NNW 21:04:31 36° NE 21:10:23 10° ESE
Cosmos 724 4.5 20:59:41 10° NNW 21:05:53 73° ENE 21:12:04 10° SE
ALOS 2.3 21:06:39 10° SSE 21:11:19 88° WSW 21:16:01 10° NNW
NOSS 2-2 (C) 3.4 21:11:35 10° SSW 21:15:36 78° ESE 21:20:05 10° NNE
Cosmos 2278 Rocket 3.6 21:12:48 10° SE 21:16:27 18° E 21:20:07 10° ENE
Coronas F rocket 1.5 21:14:04 10° S 21:16:36 45° E 21:19:10 10° NNE
Cosmos 1844 4.5 21:14:54 10° SSE 21:19:52 31° ESE 21:24:54 10° NE
Cosmos 1943 4.5 21:15:42 10° NW 21:20:56 40° WSW 21:26:07 10° S
SPOT 5 4.5 21:17:37 10° ESE 21:21:35 22° ENE 21:25:38 10° NNE
ISS -1.8 21:19:39 10° S 21:21:54 17° SE 21:24:09 10° E
Cosmos 1825 4.2 21:21:19 11° ESE 21:22:35 12° E 21:24:13 10° ENE
Cosmos 1844 Rocket 2.9 21:19:05 10° S 21:24:28 47° ESE 21:29:52 10° NNE
Envisat 3.9 21:20:01 10° SE 21:24:28 32° ENE 21:28:56 10° N
Cosmos 1624 Rocket 4.0 21:19:49 10° S 21:25:03 76° ESE 21:30:21 10° NNE
CZ-2D R/B 4.3 21:26:46 10° S 21:30:25 45° W 21:34:05 10° NNW
Cosmos 1408 4.4 21:29:47 14° ESE 21:30:45 15° E 21:32:52 10° NE
ERBS 3.2 21:28:05 10° NNW 21:31:21 37° NE 21:33:42 16° ESE
deb Chang Zheng 4 4.0 21:28:54 10° NNE 21:33:07 44° E 21:37:20 10° S
Cosmos 1356 Rocket 3.5 21:29:27 10° S 21:33:38 84° W 21:37:56 10° N
NOSS 2-2 (E) 4.2 21:30:18 10° SW 21:34:19 58° NW 21:38:56 10° NNE
Cosmos 1733 Rocket 3.0 21:30:13 10° S 21:34:36 73° E 21:39:00 10° N
Meteor 2-3 Rocket 4.5 21:31:57 10° SSW 21:37:28 56° W 21:42:58 10° N
FENGYUN 3A 4.4 21:32:16 10° S 21:37:31 53° W 21:42:48 10° NNW
YAOGAN 11 4.1 21:33:58 10° SSE 21:38:27 85° ENE 21:43:01 10° NNW
Cosmos 2184 Rocket 3.9 21:32:33 10° S 21:38:42 85° E 21:44:53 10° N
GPS 2-05 Rocket1 3.4 21:37:39 10° SW 21:41:09 41° SSE 21:43:27 18° E
PSLV R/B 3.9 21:37:46 10° WNW 21:41:10 52° NNE 21:43:37 17° E
Cosmos 407 Rocket 4.1 21:40:14 10° N 21:45:12 40° ENE 21:48:30 19° SE
BREEZE-M DEB (TANK) 2.2 21:43:11 10° NW 21:45:14 62° NE 21:47:09 22° ESE
Cosmos 2084 3.8 21:43:22 10° S 21:46:54 34° ESE 21:50:23 10° NE
CZ-4 DEB 3.4 21:44:10 10° S 21:47:16 53° W 21:50:22 10° NNW
ERS-1 Rocket 2.9 21:42:26 10° SSE 21:47:29 84° ENE 21:52:32 10° NNW
Cosmos 1452 Rocket 3.8 21:44:05 10° S 21:49:04 46° ESE 21:54:05 10° NNE
Abrixas rocket 3.2 21:46:06 10° WNW 21:49:20 40° SW 21:51:11 21° SSE
Meteor 1-27 Rocket 4.2 21:46:32 10° N 21:51:48 42° ENE 21:55:04 21° SE
Meteor 2-10 Rocket 3.9 21:46:49 10° NNW 21:52:38 76° W 21:58:15 10° S
USA 186 4.2 21:50:34 10° SSW 21:52:55 21° W 21:55:26 10° NW
H-2A R/B 3.8 21:51:38 10° WSW 21:55:45 51° S 22:18:46 10° E
Nimbus 7 Rocket 4.4 21:50:47 10° NNE 21:56:43 70° ESE 22:02:40 10° S
Cosmos 1782 2.7 21:52:51 10° N 21:56:53 72° E 21:59:29 21° SSE
Cosmos 1190 Rocket 4.0 21:52:45 10° NNW 21:57:56 67° ENE 22:01:14 22° SSE
Cosmos 1939 Rocket 2.7 21:55:37 19° SSE 21:58:17 84° E 22:02:12 10° N
H-2A R/B 2.0 21:58:20 21° SSE 22:01:11 73° ENE 22:05:26 10° N
Cosmos 1606 3.1 21:58:24 10° N 22:02:11 45° E 22:03:34 31° SE
Atlas Centaur 2 1.6 22:02:30 10° WSW 22:05:49 38° S 22:06:28 34° SSE
USA 234 3.7 22:04:51 10° ENE 22:10:46 36° SE 22:16:38 10° S
CZ-4B R/B 3.9 22:07:03 10° NNE 22:11:39 38° E 22:13:01 31° SE
OAO 3 Rocket 4.3 22:07:49 10° SSW 22:11:27 26° SSE 22:11:27 26° SSE
Cosmos 1184 Rocket 3.0 22:18:32 50° E 22:18:32 50° E 22:21:39 10° NNE
Okean 2 Rocket 3.2 22:22:51 42° SE 22:23:48 51° E 22:28:05 10° NNE
Cosmos 676 Rocket 3.9 22:22:54 10° NNW 22:28:07 75° ENE 22:30:01 40° SSE
MetOp-B 4.0 22:28:08 34° SSE 22:30:34 83° ENE 22:35:57 10° N
Nadezhda 3 Rocket 4.0 22:24:38 10° N 22:31:02 90° SSW 22:34:48 26° S
CZ-4 SHROUD 3.2 22:32:13 77° NNW 22:32:13 77° NNW 22:35:07 10° NNW
Cosmos 1174 3.8 22:30:04 10° NNW 22:32:40 46° NNE 22:32:40 46° NNE
Cosmos 1954 Rocket 4.0 22:29:08 10° N 22:34:18 65° ENE 22:35:45 45° SE
CENTAUR R/B 3.9 22:32:01 10° NW 22:39:29 43° WSW 22:45:16 18° S
SL-27 R/B 4.2 22:38:42 10° NW 22:41:50 27° W 22:42:56 23° SW
COS B Rocket 4.2 22:38:15 10° NNW 22:42:09 44° W 22:43:41 28° SW
Cosmos 1782 Rocket 3.7 22:41:24 36° SSW 22:43:08 74° W 22:47:37 10° N
ARGOS 3.1 22:42:39 48° SE 22:44:00 65° ENE 22:49:18 10° N
PSLV R/B 4.2 22:44:56 42° WNW 22:44:56 42° WNW 22:47:23 10° NNW
Cosmos 2341 Rocket 4.2 22:42:11 14° SSW 22:47:35 69° W 22:53:51 10° N
Landsat 7 4.4 22:48:20 40° ENE 22:48:27 40° ENE 22:52:54 10° N
ATLAS 5 CENTAUR R/B 3.5 22:43:37 10° NW 22:49:17 38° WSW 22:52:27 24° SSW
COSMOS 2487 2.9 22:46:54 10° NNW 22:49:57 59° N 22:49:57 59° N
Okean 3 3.6 22:46:44 10° NNW 22:51:00 71° W 22:51:34 61° SSW
Meteor 1-14 Rocket 4.2 22:50:47 51° SSE 22:52:00 65° E 22:57:34 10° NNE
Meteor 2-13 Rocket 4.5 22:51:54 29° SSW 22:55:15 81° W 23:01:27 10° N
APEX 3.5 22:57:54 63° NNE 22:57:54 63° NNE 23:01:53 10° NNE
Cosmos 1825 3.8 22:56:12 22° WSW 22:57:50 32° W 23:01:17 10° NNW
ISS -1.7 22:55:07 10° WSW 22:58:07 35° NW 22:59:03 28° N
SPOT 5 4.1 22:56:49 25° SSW 22:59:17 41° W 23:04:19 10° NNW
Cosmos 1238 Rocket 3.6 22:56:22 10° NNW 22:59:26 40° W 22:59:26 40° W
Cosmos 2278 Rocket 2.9 22:54:30 10° SW 23:00:01 53° WNW 23:05:35 10° N
DNEPR-1 R/B 4.2 22:56:31 10° NNW 23:01:33 46° NE 23:01:40 46° ENE
Intercosmos 25 3.7 23:02:10 58° WNW 23:02:10 58° WNW 23:05:15 10° N
Cosmos 1975 Rocket 3.2 22:57:52 10° NNW 23:02:09 64° W 23:02:26 62° WSW
YAOGAN 6 3.9 23:03:52 34° W 23:03:52 34° W 23:06:56 10° NNW
Timation 2 Rocket 3.9 22:57:52 10° NNW 23:03:49 64° ENE 23:04:45 56° ESE
Terra 2.6 23:04:36 39° ENE 23:04:36 39° ENE 23:08:38 10° N
Cosmos 1023 Rocket 4.2 22:59:59 10° NNW 23:05:07 84° ENE 23:05:28 77° SE
Cosmos 1833 Rocket 3.8 23:01:00 10° N 23:05:54 30° ENE 23:06:17 30° ENE
SL-8 Rocket 4.0 23:06:03 39° SSW 23:08:33 80° W 23:14:50 10° N
Cosmos 1536 Rocket 4.5 23:10:38 10° N 23:13:55 40° NE 23:13:55 40° NE
H-2A R/B 2.1 23:15:18 66° E 23:15:25 66° ENE 23:20:44 10° N
Cosmos 1242 Rocket 4.0 23:15:34 10° NNW 23:18:10 37° NW 23:18:10 37° NW
Cosmos 2082 Rocket 2.5 23:17:31 10° NNW 23:23:06 54° ENE 23:23:06 54° ENE
CZ-4C R/B 4.4 23:25:01 41° NNW 23:25:01 41° NNW 23:27:44 10° NNW
Meteor 2-8 Rocket 4.3 23:19:24 10° N 23:25:33 70° E 23:25:49 69° E
SL-08 RB Rocket 4.4 23:29:16 47° W 23:29:16 47° W 23:33:32 10° NNW
Cosmos 2151 Rocket 4.2 23:29:56 57° NW 23:29:56 57° NW 23:33:50 10° N
Cosmos 2297 4.2 23:30:37 36° SW 23:32:45 57° WNW 23:38:24 10° NNE
Cosmos 614 Rocket 4.0 23:27:49 10° NNW 23:32:23 71° NW 23:32:23 71° NW
Cosmos 1140 Rocket 4.2 23:33:32 10° NNW 23:38:19 45° W 23:38:19 45° W
CZ-3 Stage 3 4.0 22:40:59 10° W 23:43:29 69° SSW 23:45:24 56° SE
